GW3137 Weather Reports


Display with metric or nautical units.
time (UTC)temp
F
wind
direction
speed
MPH
gust
MPH
rain 1hr
in
rain 24hr
in
rain mn
in
humidity
%
barometer
mb
20260510013704 70 8 2.0 5.0 0.00 0.00 0.00 53 1016.7
20260510013205 70 20 0.0 5.0 0.00 0.00 0.00 52 1016.7
20260510010704 70 344 1.0 2.0 0.00 0.00 0.00 52 1016.8
20260510010204 70 340 2.0 6.0 0.00 0.00 0.00 52 1016.8
20260510003704 70 342 2.0 6.0 0.00 0.00 0.00 52 1017.1
20260510003203 70 322 1.0 8.0 0.00 0.00 0.00 51 1017.2
20260510000703 70 338 3.0 9.0 0.00 0.00 0.00 51 1017.5
20260509233703 71 9 3.0 8.0 0.00 0.00 0.00 51 1017.7
20260509233205 71 0 2.0 9.0 0.00 0.00 0.00 50 1017.7
20260509230704 72 267 2.0 5.0 0.00 0.00 0.00 49 1018.0
20260509230204 71 201 1.0 10.0 0.00 0.00 0.00 49 1018.3
20260509223704 70 287 2.0 12.0 0.00 0.00 0.00 52 1018.5
20260509223204 69 293 3.0 10.0 0.00 0.00 0.00 53 1018.6
20260509220704 71 320 3.0 9.0 0.00 0.00 0.00 52 1018.6
20260509220204 71 274 2.0 8.0 0.00 0.00 0.00 52 1018.7
20260509213704 70 277 3.0 9.0 0.00 0.00 0.00 52 1018.8
20260509213205 70 292 3.0 8.0 0.00 0.00 0.00 51 1018.8
20260509210203 70 354 3.0 7.0 0.00 0.00 0.00 53 1019.0
20260509203703 70 304 3.0 8.0 0.00 0.00 0.00 54 1019.2
20260509203203 69 288 2.0 8.0 0.00 0.00 0.00 54 1019.2
20260509200705 68 336 2.0 5.0 0.00 0.00 0.00 56 1019.7
20260509200204 67 292 5.0 10.0 0.00 0.00 0.00 55 1019.7
20260509193704 68 333 2.0 8.0 0.00 0.00 0.00 56 1020.1
20260509193204 67 286 3.0 9.0 0.00 0.00 0.00 58 1020.2
20260509190704 66 29 3.0 7.0 0.00 0.00 0.00 59 1020.4
20260509183704 66 303 2.0 3.0 0.00 0.00 0.00 61 1020.6
20260509183204 65 19 2.0 6.0 0.00 0.00 0.00 62 1020.6
20260509180704 64 4 2.0 7.0 0.00 0.00 0.00 64 1020.9
20260509180205 64 25 1.0 5.0 0.00 0.00 0.00 64 1020.8
20260509173704 62 322 3.0 6.0 0.00 0.00 0.00 68 1021.0
20260509173203 62 293 1.0 6.0 0.00 0.00 0.00 68 1021.1
20260509170704 60 303 2.0 3.0 0.00 0.00 0.00 72 1021.2
20260509170204 59 308 2.0 3.0 0.00 0.00 0.00 73 1021.2
20260509163704 58 285 2.0 7.0 0.00 0.00 0.00 76 1021.5
20260509163204 58 288 1.0 5.0 0.00 0.00 0.00 76 1021.5
20260509160704 57 295 2.0 3.0 0.00 0.00 0.00 79 1021.7
20260509160204 57 355 1.0 3.0 0.00 0.00 0.00 80 1021.7
20260509153704 56 298 2.0 3.0 0.00 0.00 0.00 82 1021.9
20260509153205 55 293 1.0 3.0 0.00 0.00 0.00 83 1021.9
20260509150704 55 158 0.0 2.0 0.00 0.00 0.00 84 1022.1
20260509150203 55 265 0.0 3.0 0.00 0.00 0.00 84 1022.1
20260509143703 54 60 1.0 2.0 0.00 0.00 0.00 86 1022.2
20260509143204 54 111 0.0 3.0 0.00 0.00 0.00 86 1022.3
20260509140703 52 91 0.0 0.0 0.00 0.00 0.00 89 1022.4
20260509140203 52 91 0.0 0.0 0.00 0.00 0.00 89 1022.4
20260509133703 50 98 0.0 0.0 0.00 0.00 0.00 89 1022.4
20260509133204 50 98 0.0 0.0 0.00 0.00 0.00 89 1022.4
20260509130704 50 98 0.0 1.0 0.00 0.00 0.00 89 1022.3
20260509130204 50 98 1.0 2.0 0.00 0.00 0.00 89 1022.3
20260509123704 50 98 0.0 0.0 0.00 0.00 0.00 89 1022.2
20260509123203 50 98 0.0 0.0 0.00 0.00 0.00 90 1022.2
20260509120704 50 98 0.0 0.0 0.00 0.00 0.00 88 1022.4
20260509120204 50 98 0.0 0.0 0.00 0.00 0.00 89 1022.4
20260509113704 51 98 0.0 0.0 0.00 0.00 0.00 87 1022.5
20260509113204 51 98 0.0 0.0 0.00 0.00 0.00 87 1022.5
20260509110704 52 98 0.0 0.0 0.00 0.00 0.00 86 1022.7
20260509103704 54 235 0.0 0.0 0.00 0.00 0.00 84 1022.7
20260509103203 54 235 0.0 2.0 0.00 0.00 0.00 83 1022.7
20260509100705 55 260 0.0 1.0 0.00 0.00 0.00 83 1022.8
20260509100204 55 260 0.0 2.0 0.00 0.00 0.00 83 1022.9
20260509093204 55 260 0.0 3.0 0.00 0.00 0.00 82 1023.0
20260509090704 55 260 2.0 5.0 0.00 0.00 0.00 81 1023.2
20260509090204 55 263 2.0 5.0 0.00 0.00 0.00 81 1023.3
20260509083705 55 278 1.0 3.0 0.00 0.00 0.00 81 1023.3
20260509083204 55 183 1.0 6.0 0.00 0.00 0.00 81 1023.2
20260509080704 56 176 1.0 5.0 0.00 0.00 0.00 80 1023.2
20260509080204 55 273 2.0 6.0 0.00 0.00 0.00 80 1023.3
20260509073704 55 179 3.0 8.0 0.00 0.00 0.00 79 1023.1
20260509073204 55 186 2.0 5.0 0.00 0.00 0.00 79 1023.1
20260509070704 55 117 1.0 3.0 0.00 0.00 0.00 80 1023.0
20260509070204 55 117 1.0 3.0 0.00 0.00 0.00 80 1023.0
20260509063705 54 143 0.0 1.0 0.00 0.00 0.00 80 1022.9
20260509060704 55 143 1.0 2.0 0.00 0.00 0.00 78 1022.8
20260509060204 55 135 0.0 2.0 0.00 0.00 0.00 78 1022.8
20260509053704 56 182 1.0 3.0 0.00 0.00 0.00 76 1022.7
20260509053204 56 234 1.0 5.0 0.00 0.00 0.00 76 1022.7
20260509050704 57 213 2.0 3.0 0.00 0.00 0.00 74 1022.6
20260509050204 57 163 1.0 3.0 0.00 0.00 0.00 74 1022.6
20260509043704 57 244 1.0 3.0 0.00 0.00 0.00 73 1022.5
20260509033704 59 185 1.0 3.0 0.00 0.00 0.00 67 1021.9
20260509033204 59 189 1.0 6.0 0.00 0.00 0.00 66 1021.8
20260509030704 61 317 1.0 3.0 0.00 0.00 0.00 63 1021.6
20260509030204 61 252 1.0 10.0 0.00 0.00 0.00 62 1021.6
20260509023704 62 241 3.0 8.0 0.00 0.00 0.00 60 1021.4
20260509023204 62 258 4.0 12.0 0.00 0.00 0.00 60 1021.4
20260509020703 64 221 5.0 10.0 0.00 0.00 0.00 55 1021.4
20260509020203 64 199 2.0 12.0 0.00 0.00 0.00 56 1021.4